sat.trackr.live / text

‹ back to catalog

STARLINK-36446

NORAD 67412 · 2026-005J

PAYLOAD ACTIVE UNKNOWN

§ Identity

Operator
Country
US
Launch date
2026-01-12
Launch site
AFETR
Launch vehicle
Mass (kg)
RCS (m²)

Purposes: comms

External: N2YO · Heavens-Above · Gunter

§ Orbital elements

Epoch: 2026-09-19T22:23:12.890112Z

Period
94.27 min
Inclination
42.9999°
Eccentricity
0.0000220
Mean motion
15.27592618 rev/d
Perigee alt
482.9 km
Apogee alt
483.2 km
Semi-major
6,861.1 km
B*
3.4001e-4
RAAN
220.9851°
Arg perigee
109.4344°
Mean anomaly
250.6531°
Rev number
3,840

§ Raw data

STARLINK-364461 67412U 26005J   26262.93278808  .00009110  00000+0  34001-3 0  99972 67412  42.9999 220.9851 0000220 109.4344 250.6531 15.27592618 38403

JSON: /api/v1/satellites/67412 · /tle

For live sub-satellite position, see the globe view (requires WebGL).

§ Visibility from observer

Set your observer location to see the next 7 days of passes ≥ 10°. The values pass through the URL so the page stays shareable.

No JS? Fill the form by hand. The geolocation button needs JavaScript.